Content
SEND FEEDBACK

Daily
Averages
Monthly
Summary
United States of America

DEWEESE, NEBRASKA


Home > North America > United States > Nebraska
Elevation: 1670 feet     Latitude: 40 20N     Longitude: 098 04W

WEATHER
 
SELECT A DAY
Number of Records: 197,157;   Date Range: 1/1/95 - 10/30/14
 
SHARE

PRINT THIS DATA

[ ← Previous Day ]
WEATHER ALMANAC - JANUARY 31, 2013
[ Next Day → ]
[ °C ]   °F
Weather ElementAverageHighLow
Temperature14.2 °F19.9 °F (1:53 am)9 °F (7:53 pm)
Dewpoint4 °F14 °F (1:53 am)-2 °F (5:53 pm)
Humidity64.8 %84 % (3:53 am)49 % (3:53 pm)
Barometer30.28 in30.47 in (9:53 pm)29.97 in (1:53 am)
Wind Speed13.4 mph24.2 mph (9:53 am)
Wind Gust32.2 mph (9:53 am)
Weather ElementAverage
Visibility10 mi
Wind DirectionW (270.4 °)

Weather ElementTotal
Precipitation---
Heating Degree Days50.6 (Base 65)
Averaged from 23 records on January 31, 2013
WEATHER CONDITIONS BREAKOUT
WIND DIRECTION BREAKOUT
WEATHER BY HOUR - JANUARY 31, 2013
[ °C ]   °F
Local TimeTemperatureDewpointHumidityBarometerVisibilityWind DirectionWind SpeedGust SpeedPrecipitationEventsConditions
1:53 AM19.9 °F14.0 °F78 %29.97 in10.0 miNNE (30°)6.9 mphOvercast
2:53 AM19.0 °F12.9 °F77 %30.00 in10.0 miNorth (10°)5.8 mphMostly Cloudy
3:53 AM17.1 °F12.9 °F84 %30.02 in10.0 miNNE (30°)8.1 mphScattered Clouds
4:53 AM17.1 °F10.9 °F77 %30.05 in10.0 miNorth (360°)13.8 mphOvercast
5:53 AM16.0 °F10.0 °F77 %30.08 in10.0 miNorth (350°)15.0 mphOvercast
6:53 AM15.1 °F9.0 °F77 %30.11 in10.0 miNorth (360°)11.5 mphOvercast
7:53 AM15.1 °F8.1 °F74 %30.15 in10.0 miNorth (350°)18.4 mph26.5 mphOvercast
8:53 AM14.0 °F7.0 °F74 %30.21 in10.0 miNorth (360°)20.7 mphOvercast
9:53 AM12.0 °F3.0 °F67 %30.29 in10.0 miNNW (340°)24.2 mph32.2 mphOvercast
10:53 AM12.9 °F1.9 °F62 %30.33 in10.0 miNNW (340°)21.9 mph32.2 mphPartly Cloudy
11:53 AM14.0 °F3.0 °F62 %30.35 in10.0 miNNW (330°)20.7 mph29.9 mphPartly Cloudy
12:53 PM15.1 °F1.0 °F54 %30.36 in10.0 miNW (320°)24.2 mph31.1 mphClear
1:53 PM16.0 °F3.0 °F57 %30.35 in10.0 miNW (320°)19.6 mphClear
2:53 PM16.0 °F1.0 °F52 %30.35 in10.0 miNNW (330°)19.6 mphClear
3:53 PM16.0 °F0.0 °F49 %30.38 in10.0 miNNW (330°)17.3 mphClear
4:53 PM15.1 °F-0.9 °F49 %30.38 in10.0 miNNW (330°)17.3 mphClear
5:53 PM12.9 °F-2.0 °F51 %30.39 in10.0 miNNW (330°)13.8 mphClear
6:53 PM10.9 °F-0.9 °F59 %30.41 in10.0 miNNW (330°)5.8 mphClear
7:53 PM9.0 °F-0.9 °F64 %30.43 in10.0 miNW (320°)5.8 mphClear
8:53 PM9.0 °F0.0 °F67 %30.45 in10.0 miNNW (330°)4.6 mphScattered Clouds
9:53 PM10.9 °F-0.9 °F59 %30.47 in10.0 miNW (310°)3.5 mphScattered Clouds
10:53 PM12.0 °F0.0 °F59 %30.43 in10.0 miNE (40°)5.8 mphOvercast
11:53 PM12.0 °F1.0 °F61 %30.42 in10.0 miENE (70°)3.5 mphOvercast
Hourly data recorded from KHSI, located miles away from Deweese, Nebraska







STORIES FROM OUR PARTNERS